Regional Weather Roundup
Issued by NWS Grand Forks, ND

Home | Current Version | Previous Version | Text Only | Print | Product List | Glossary Off
Versions: 1 2 3 4 5 6 7 8 9 10 11 12 13 14 15 16 17 18 19 20 21 22 23 24 25 26 27 28 29 30 31 32 33 34 35 36 37 38 39 40 41 42 43 44 45 46 47 48 49 50

000
ASUS43 KFGF 280610
RWRFGF
PRAIRIE TO PINES  WEATHER ROUNDUP
NATIONAL WEATHER SERVICE EASTERN NORTH DAKOTA/GRAND FORKS ND
100 AM CDT FRI APR 28 2017

 **SATELLITE DATA USED TO AUGMENT SKY COVER AT AUTOMATED STATIONS**
 *****  WEATHER ACROSS EASTERN NORTH DAKOTA  *****

CITY           SKY/WX    TMP DP  RH WIND       PRES   REMARKS
GRAND FORKS    FAIR      33  29  85 NW9       29.84R
6HR MIN TEMP:  33; 6HR MAX TEMP:  43;

GRAND FRKS AFB FAIR      30  28  92 NW6       29.85R WCI  24
DEVILS LAKE    FAIR      34  27  75 CALM      29.87R
6HR MIN TEMP:  33; 6HR MAX TEMP:  46;

FARGO          FAIR      33  27  78 N13       29.83R WCI  24
WAHPETON ARPT  FAIR      34  30  86 N9        29.82R
$$

 ***** WEATHER ACROSS CENTRAL AND WESTERN NORTH DAKOTA  *****

CITY           SKY/WX    TMP DP  RH WIND       PRES   REMARKS
BISMARCK       FAIR      33  25  72 NE6       29.87R
6HR MIN TEMP:  32; 6HR MAX TEMP:  53;

MINOT          FAIR      30  25  81 N5        29.87R
6HR MIN TEMP:  29; 6HR MAX TEMP:  52;

JAMESTOWN      FAIR      35  31  85 NE8       29.84R
6HR MIN TEMP:  35; 6HR MAX TEMP:  48;

MINOT AFB      FAIR      35  26  71 NE3       29.87R
GARRISON         N/A     35  26  69 E7        29.86R
WILLISTON      FAIR      37  18  46 NE6       29.86R
6HR MIN TEMP:  36; 6HR MAX TEMP:  53;

DICKINSON      FAIR      30  16  56 E8        29.81R WCI  22
6HR MIN TEMP:  29; 6HR MAX TEMP:  49;

HETTINGER      FAIR      31  23  72 NE8       29.81S WCI  23
6HR MIN TEMP:  30; 6HR MAX TEMP:  50;

$$

 *****  OTHER AIRPORT OBSERVATIONS IN OUR AREA  *****

CITY           SKY/WX    TMP DP  RH WIND       PRES   REMARKS
WALHALLA       NOT AVBL
GRAFTON AIRPOR FAIR      32  30  93 W6        29.87R
VALLEY CITY AR FAIR      30  30 100 N6        29.85F WCI  24
CANDO          NOT AVBL
CAVALIER APRT  MOCLDY    32  28  86 CALM      29.84R
GWINNER        NOT AVBL
SHEYENNE NWR     N/A     35  27  72 N9        29.95S
ROLLA          FAIR      28  23  80 N9        29.88R WCI  20
 ***** THE ABOVE OBSERVATIONS ARE NON NWS ARE NOT QUALITY
       CONTROLLED AND MAY MIS-REPORT RAIN FOR SNOW...
$$

  *****  WEATHER ACROSS NORTHERN MINNESOTA  *****

CITY           SKY/WX    TMP DP  RH WIND       PRES   REMARKS
FLAG ISLAND    LGT SNOW  28  27  93 N17       29.74R WCI  16
WARROAD        MOCLDY    30  27  86 NW8       29.77R WCI  23
ROSEAU         MOCLDY    30  27  86 N9        29.78R WCI  22
HALLOCK        CLOUDY    34  30  86 NW6       29.83R
THF RVR FALLS  CLOUDY    29  26  89 NW9       29.81R WCI  20
6HR MIN TEMP:  28; 6HR MAX TEMP:  32; 6HR PCP: TRACE;

BAUDETTE       FLURRIES  29  24  82 N18       29.71R WCI  16
6HR MIN TEMP:  28; 6HR MAX TEMP:  30; 6HR PCP: TRACE;

WASKISH        CLOUDY    28  27  93 NW12      29.72S WCI  18
CROOKSTON      CLOUDY    32  30  93 NW8       29.83S WCI  25
STEPHEN NDAWN    N/A     32  30  93 NW7         N/A
GREENBUSH NDAW   N/A     32  28  86 N12         N/A  WCI  23
$$
  *****  WEATHER ACROSS CENTRAL AND WEST MINNESOTA  *****

CITY           SKY/WX    TMP DP  RH WIND       PRES   REMARKS
FOSSTON        FAIR      25  21  86 NW10      29.79R WCI  15
BEMIDJI        CLOUDY    28  22  80 NW10      29.74R WCI  18
PARK RAPIDS    FAIR      29  20  69 NW13      29.75R WCI  19
6HR MIN TEMP:  29; 6HR MAX TEMP:  31;

ELBOW LAKE     MOCLDY    33  31  92 NW6       29.81R
6HR MIN TEMP:  33; 6HR MAX TEMP:  35;

WADENA         CLOUDY    30  27  86 NW6       29.77R WCI  24
DETROIT LAKES  CLOUDY    32  28  86 NW8       29.79R WCI  25
MOORHEAD       FAIR      32  27  80 N16       29.83R WCI  21
FERGUS FALLS   FAIR      34  28  80 NW13      29.81R WCI  25
MORRIS MN      MOCLDY    36  30  80 W7        29.80R
STAPLES        CLOUDY    28  27  93 W10       29.77R WCI  19
$$
  *****  WEATHER ELSEWHERE ACROSS MINNESOTA  *****

CITY           SKY/WX    TMP DP  RH WIND       PRES   REMARKS
DULUTH         CLOUDY    28  23  81 W10       29.66S WCI  19
6HR MIN TEMP:  28; 6HR MAX TEMP:  29; 6HR PCP: TRACE;

INTRNTL FALLS  CLOUDY    27  22  81 NW8       29.67R WCI  19
6HR MIN TEMP:  26; 6HR MAX TEMP:  28; 6HR PCP: TRACE;

ELY            CLOUDY    25  21  86 NW7       29.63R WCI  17
CLOQUET        CLOUDY    28  23  80 W6        29.69R WCI  22
WHEATON        FAIR      34  28  80 NW5       29.85R
BRAINERD       CLOUDY    31  24  75 W8        29.75R WCI  23
6HR MIN TEMP:  30; 6HR MAX TEMP:  31;

HIBBING        CLOUDY    26  21  81 NW8       29.67R WCI  18
6HR MIN TEMP:  26; 6HR MAX TEMP:  26;

ALEXANDRIA     CLOUDY    35  29  78 W9        29.79R
6HR MIN TEMP:  32; 6HR MAX TEMP:  35;

SAINT CLOUD    CLOUDY    34  27  75 W12       29.78R
6HR MIN TEMP:  32; 6HR MAX TEMP:  34;

MINNEAPOLIS    MOCLDY    35  25  66 W10       29.80R
6HR MIN TEMP:  34; 6HR MAX TEMP:  36;

$$

  *****  WEATHER ACROSS SOUTH DAKOTA  *****

CITY           SKY/WX    TMP DP  RH WIND       PRES   REMARKS
SIOUX FALLS    FAIR      32  28  85 E6        29.85R
6HR MIN TEMP:  31; 6HR MAX TEMP:  50;

BROOKINGS      FAIR      30  26  85 S7        29.84R WCI  23
WATERTOWN      FAIR      31  27  85 SW3       29.81S
6HR MIN TEMP:  28; 6HR MAX TEMP:  41;

HURON          FAIR      32  27  81 SE5       29.84R
6HR MIN TEMP:  32; 6HR MAX TEMP:  49;

SISSETON         N/A     34  30  85 N9        29.82R
ABERDEEN       FAIR      27  24  89 S7        29.86R WCI  19
6HR MIN TEMP:  27; 6HR MAX TEMP:  50;

MITCHELL       FAIR      34  28  79 SE8       29.84R
PIERRE         FAIR      32  27  81 E5        29.80R
6HR MIN TEMP:  30; 6HR MAX TEMP:  51;

MOBRIDGE       FAIR      39  24  55 E9        29.81R
RAPID CITY     CLOUDY    39  31  72 E7        29.76R
6HR MIN TEMP:  39; 6HR MAX TEMP:  45; 6HR PCP: TRACE;

$$

  *****  SOME WEATHER IN NEARBY STATES *****

CITY           SKY/WX    TMP DP  RH WIND       PRES   REMARKS
GLASGOW MT     CLOUDY    43  15  32 E10       29.81R
6HR MIN TEMP:  43; 6HR MAX TEMP:  54;

GREAT FALLS MT CLOUDY    37  35  92 SW6       29.86S
6HR MIN TEMP:  37; 6HR MAX TEMP:  42; 6HR PCP: TRACE;

CHEYENNE WY    FAIR      35  26  69 W9        29.63F
6HR MIN TEMP:  34; 6HR MAX TEMP:  48;

SCOTTSBLUFF NE CLOUDY    42  39  89 E9        29.62S
6HR MIN TEMP:  42; 6HR MAX TEMP:  45; 6HR PCP: TRACE;

OMAHA NE       CLOUDY    48  35  60 VRB3      29.79R
6HR MIN TEMP:  44; 6HR MAX TEMP:  58;

DES MOINES IA  CLOUDY    43  31  62 NE9       29.85R
6HR MIN TEMP:  43; 6HR MAX TEMP:  56;

DAVENPORT IA   FAIR      36  34  92 N3        29.88R
6HR MIN TEMP:  36; 6HR MAX TEMP:  46;

CHICAGO IL     FAIR      42  36  79 SW7       29.87R
6HR MIN TEMP:  42; 6HR MAX TEMP:  46;

EAU CLAIRE WI  CLOUDY    33  24  69 SW7       29.78R
6HR MIN TEMP:  32; 6HR MAX TEMP:  34;

LA CROSSE WI   CLOUDY    38  28  67 W12       29.83R
6HR MIN TEMP:  38; 6HR MAX TEMP:  40;

$$

  *****  SOME NATIONAL WEATHER *****

CITY           SKY/WX    TMP DP  RH WIND       PRES   REMARKS
LA GUARDIA NY  FOG       59  57  93 CALM      29.88R VSB 1/4
6HR MIN TEMP:  58; 6HR MAX TEMP:  64;

RALEIGH NC     MOCLDY    72  65  78 SW8       29.94R
6HR MIN TEMP:  72; 6HR MAX TEMP:  75; 6HR PCP: TRACE;

ATLANTA GA     CLOUDY    68  67  96 SW7       29.93R FOG
6HR MIN TEMP:  68; 6HR MAX TEMP:  76;

NEW ORLEANS LA CLOUDY    76  73  91 SE9       29.77F
6HR MIN TEMP:  73; 6HR MAX TEMP:  79;

OKLAHOMA CITY  MOCLDY    59  50  72 E16       29.59F
6HR MIN TEMP:  58; 6HR MAX TEMP:  64; 6HR PCP: TRACE;

ALBUQUERQUE NM MOCLDY    56  23  27 N7        29.74F
6HR MIN TEMP:  56; 6HR MAX TEMP:  66;

SALT LAKE CITY MOCLDY    39  31  72 N10       29.87R
6HR MIN TEMP:  39; 6HR MAX TEMP:  51;

LOS ANGELES CA FAIR      75  32  20 N18G28    29.75S
6HR MIN TEMP:  64; 6HR M


USA.gov is the U.S. government's official web portal to all federal, state and local government web resources and services.